User: anonymous   Login
Location: Unspecified
(0.0000°N, 0.0000°E)
Time: 18:43:12
(UTC+00:00)
Language:

DNEPR OBJECT AC - Orbit

View from above orbital plane
View from above orbital plane
View from above satellite
View from above satellite

Ground track
Ground track

The orbit data is extracted from the following two-line orbital elements,

1 39442U 13066AC  18351.17991623  .00000150  00000-0  20694-4 0  9995
2 39442  97.5758  37.7319 0031381 199.3666 160.6363 14.90657949274317
Epoch (UTC): 17 December 2018 04:19:04
Eccentricity: 0.0031381
inclination: 97.5758°
perigee height: 574 km
apogee height: 618 km
right ascension of ascending node: 37.7319°
argument of perigee: 199.3666°
revolutions per day: 14.90657949
mean anomaly at epoch: 160.6363°
orbit number at epoch: 27431

The dashed part of the orbit path shows where the satellite is in the earth's shadow,  

DLR